Flag for Germany Weather past 2 weeks in Delbrück, North Rhine-Westphalia, Germany

Now
54 °F

Scattered clouds.


Feels Like: 52 °F
Forecast: 47 / 57 °F
Wind: 6 mph from Northwest

Location: Paderborn / Lippstadt

Current Time: Sep 21, 2014 at 8:16:49 PM

Latest Report: Sep 21, 2014 at 7:50 PM


Visibility: N/A

Pressure: 30.04 "Hg

Humidity: 82%

Dew point: 48 °F

Location of DelbrückLocation

Historic Weather in Delbrück — Graph

°F

Delbrück temperature yesterday

Maximum temperature yesterday: 68 °F (at 3:20 PM)
Minimum temperature yesterday: 55 °F (at 5:50 AM)
Average temperature yesterday: 62 °F

Past Weeks' High & Low Weather Summary

 TemperatureHumidityPressure
High73 °F (Sep 17, 4:20 PM)100% (Sep 6, 10:20 PM)30.24 "Hg (Sep 6, 10:20 PM)
Low45 °F (Sep 12, 3:50 AM)50% (Sep 17, 4:20 PM)29.86 "Hg (Sep 19, 4:50 AM)
Average60 °F87%30.04 "Hg
* Reported Sep 6 6:20 PM — Sep 21 6:50 PM, Delbrück, Weather by CustomWeather, © 2014

Note: Actual official high and low records may vary slightly from our data, if they occured in-between our weather recording intervals... More about our weather records

Advertising

Delbrück weather history for previous 24 hours

 ConditionsComfort  
Time TempWeatherWind HumidityBarometerVisibility
6:50 PM
Sep 21
57 °FScattered clouds.10 mph72%30.01 "HgN/A
6:20 PM57 °FScattered clouds.7 mph72%30.01 "HgN/A
5:50 PM57 °FScattered clouds.9 mph67%30.01 "HgN/A
5:20 PM59 °FScattered clouds.9 mph72%29.98 "HgN/A
4:20 PM59 °FScattered clouds.7 mph77%29.98 "HgN/A
3:50 PM57 °FScattered clouds.8 mph82%29.98 "HgN/A
3:20 PM57 °FScattered clouds.10 mph100%29.98 "Hg6 mi
2:50 PM57 °FBroken clouds.7 mph100%29.98 "Hg6 mi
2:20 PM57 °FBroken clouds.5 mph100%30.01 "Hg6 mi
1:50 PM57 °FFog.7 mph100%30.01 "Hg2 mi
1:20 PM57 °FFog.3 mph100%30.01 "Hg2 mi
12:50 PM57 °FLight rain. Fog.6 mph100%30.01 "Hg2 mi
12:20 PM57 °FLight rain. Fog.7 mph100%29.98 "Hg1 mi
11:50 AM57 °FRain. Fog.7 mph100%29.98 "Hg1 mi
11:20 AM57 °FLight rain. Fog.5 mph100%29.98 "Hg1 mi
10:50 AM57 °FRain. Fog.5 mph100%29.98 "Hg1 mi
10:20 AM57 °FRain. Fog.5 mph100%29.95 "Hg1 mi
9:50 AM57 °FFog.3 mph100%29.95 "Hg1 mi
9:20 AM57 °FFog.5 mph100%29.95 "Hg1 mi
8:50 AM57 °FFog.3 mph100%29.95 "Hg1 mi
8:20 AM57 °FFog.3 mph100%29.95 "Hg0 mi
7:50 AM57 °FFog.5 mph100%29.95 "Hg0 mi
7:20 AM57 °FFog.3 mph100%29.95 "Hg0 mi
6:50 AM57 °FFog.5 mph100%29.95 "Hg1 mi
6:20 AM57 °FFog.5 mph100%29.95 "Hg1 mi
5:50 AM59 °FFog.6 mph94%29.95 "Hg2 mi
5:20 AM59 °FFog.6 mph100%29.95 "Hg1 mi
4:50 AM59 °FFog.6 mph100%29.95 "Hg1 mi
4:20 AM59 °FFog.5 mph100%29.95 "Hg1 mi
11:20 PM
Sep 20
59 °FRain. Clear.2 mph94%29.95 "HgN/A
10:20 PM59 °FClear.2 mph94%29.98 "Hg10 mi
9:50 PM59 °FSprinkles. Passing clouds.5 mph100%29.98 "HgN/A
9:20 PM59 °FThunderstorms. Passing clouds.3 mph100%29.98 "HgN/A
8:50 PM63 °FThunderstorms. Passing clouds.8 mph88%29.95 "HgN/A
8:20 PM63 °FThunderstorms. Scattered clouds.7 mph100%29.95 "HgN/A
Weather by CustomWeather, © 2014

See weather overviewHow to use our weather pages